Weather History for KUCY - January, 2014

Change the Weather History Date:

Monday, January 6, 2014

  Actual Average (KDYR) Record (KDYR)
Temperature  
Mean Temperature 6 °F -  
Max Temperature 10 °F 45 °F 71 °F (2008)
Min Temperature 3 °F 31 °F 19 °F (2004)
Degree Days  
Heating Degree Days 58    
Moisture  
Dew Point -5 °F    
Average Humidity 60    
Maximum Humidity 73    
Minimum Humidity 52    
Precipitation  
Precipitation 0.00 in - - ()
Sea Level Pressure  
Sea Level Pressure 30.48 in    
Wind  
Wind Speed 16 mph (WNW)    
Max Wind Speed 22 mph    
Max Gust Speed -    
Visibility 10 miles    
Events      
Averages and records for this station are not official NWS values.
T = Trace of Precipitation, MM = Missing Value Source: NWS Daily Summary

Daily Weather History Graph

Daily Weather History Graph

Search for Another Location

Airport or City:

Trip Planner

Search our weather history database for the weather conditions in past years. The results will help you decide how hot, cold, wet, or windy it might be!

Date:

Astronomy

Jan. 06, 2014 Rise Set
Actual Time 7:08 AM CST 4:55 PM CST
Civil Twilight 6:39 AM CST 5:24 PM CST
Nautical Twilight 6:07 AM CST 5:56 PM CST
Astronomical Twilight 5:36 AM CST 6:27 PM CST
Moon 10:34 AM CST (1/6) 11:17 PM CST (1/6)
Length of Visible Light 10h 44m
Length of Day
9h 47m
Waxing Crescent, 35% of the Moon is Illuminated
Jan 6
Waxing Crescent
Jan 7
First Quarter
Jan 15
Full
Jan 23
Last Quarter
Jan 30
New

Hourly Weather History & Observations

Time (CST) Temp. Windchill Dew Point Humidity Pressure Visibility Wind Dir Wind Speed Gust Speed Precip Events Conditions
12:15 AM 10.4 °F -7.2 °F 1.4 °F 67% 30.27 in 10.0 mi NW 17.3 mph - N/A   Partly Cloudy
12:35 AM 10.4 °F -7.7 °F 1.4 °F 67% 30.28 in 10.0 mi NNW 18.4 mph - N/A   Clear
12:55 AM 10.4 °F -7.7 °F 1.4 °F 67% 30.30 in 10.0 mi NNW 18.4 mph - N/A   Clear
1:15 AM 8.6 °F -9.5 °F 1.4 °F 73% 30.32 in 10.0 mi NNW 17.3 mph - N/A   Clear
1:35 AM 8.6 °F -11.4 °F -0.4 °F 67% 30.33 in 10.0 mi NNW 21.9 mph - N/A   Clear
3:15 AM 6.8 °F -12.9 °F -2.2 °F 67% 30.37 in 10.0 mi NNW 19.6 mph - N/A   Partly Cloudy
3:35 AM 6.8 °F -10.7 °F -2.2 °F 67% 30.39 in 10.0 mi NW 15.0 mph - N/A   Partly Cloudy
3:55 AM 6.8 °F -11.3 °F -4.0 °F 61% 30.39 in 10.0 mi NW 16.1 mph - N/A   Scattered Clouds
4:15 AM 6.8 °F -13.4 °F -4.0 °F 61% 30.40 in 10.0 mi NNW 20.7 mph - N/A   Partly Cloudy
4:35 AM 6.8 °F -11.8 °F -4.0 °F 61% 30.41 in 10.0 mi NNW 17.3 mph - N/A   Clear
4:55 AM 6.8 °F -11.3 °F -2.2 °F 67% 30.42 in 10.0 mi NNW 16.1 mph - N/A   Partly Cloudy
5:15 AM 5.0 °F -12.3 °F -4.0 °F 66% 30.42 in 10.0 mi NNW 13.8 mph - N/A   Clear
5:35 AM 5.0 °F -14.2 °F -4.0 °F 66% 30.41 in 10.0 mi NW 17.3 mph - N/A   Clear
5:55 AM 3.2 °F -17.6 °F -5.8 °F 66% 30.43 in 10.0 mi NW 19.6 mph - N/A   Partly Cloudy
6:15 AM 3.2 °F -16.5 °F -9.4 °F 56% 30.44 in 10.0 mi NW 17.3 mph - N/A   Clear
6:35 AM 3.2 °F -17.1 °F -9.4 °F 56% 30.45 in 10.0 mi NW 18.4 mph - N/A   Clear
6:55 AM 3.2 °F -14.6 °F -9.4 °F 56% 30.46 in 10.0 mi NNW 13.8 mph - N/A   Clear
7:15 AM 3.2 °F -13.9 °F -7.6 °F 61% 30.46 in 10.0 mi NNW 12.7 mph - N/A   Partly Cloudy
7:35 AM 3.2 °F -16.5 °F -7.6 °F 61% 30.47 in 10.0 mi NW 17.3 mph - N/A   Partly Cloudy
7:55 AM 3.2 °F -15.9 °F -9.4 °F 56% 30.48 in 10.0 mi NNW 16.1 mph - N/A   Clear
8:15 AM 3.2 °F -16.5 °F -7.6 °F 61% 30.49 in 10.0 mi NNW 17.3 mph - N/A   Clear
8:35 AM 3.2 °F -17.1 °F -7.6 °F 61% 30.49 in 10.0 mi NW 18.4 mph - N/A   Clear
8:55 AM 5.0 °F -12.3 °F -5.8 °F 61% 30.50 in 10.0 mi NW 13.8 mph - N/A   Clear
9:15 AM 3.2 °F -13.1 °F -4.0 °F 72% 30.51 in 10.0 mi WNW 11.5 mph - N/A   Mostly Cloudy
9:35 AM 5.0 °F -14.7 °F -7.6 °F 56% 30.51 in 10.0 mi WNW 18.4 mph - N/A   Scattered Clouds
9:55 AM 6.8 °F -11.3 °F -5.8 °F 56% 30.51 in 10.0 mi NW 16.1 mph - N/A   Clear
10:15 AM 6.8 °F -12.4 °F -7.6 °F 52% 30.51 in 10.0 mi WNW 18.4 mph - N/A   Clear
10:35 AM 6.8 °F -12.4 °F -5.8 °F 56% 30.51 in 10.0 mi NW 18.4 mph - N/A   Clear
10:55 AM 6.8 °F -11.8 °F -5.8 °F 56% 30.51 in 10.0 mi NW 17.3 mph - N/A   Clear
11:15 AM 6.8 °F -10.7 °F -5.8 °F 56% 30.50 in 10.0 mi WNW 15.0 mph - N/A   Clear
11:35 AM 6.8 °F -11.8 °F -4.0 °F 61% 30.49 in 10.0 mi WNW 17.3 mph - N/A   Partly Cloudy
11:55 AM 6.8 °F -11.8 °F -5.8 °F 56% 30.49 in 10.0 mi West 17.3 mph - N/A   Partly Cloudy
12:15 PM 5.0 °F -13.6 °F -5.8 °F 61% 30.48 in 10.0 mi NW 16.1 mph - N/A   Mostly Cloudy
12:35 PM 6.8 °F -8.6 °F -2.2 °F 67% 30.48 in 10.0 mi West 11.5 mph - N/A   Mostly Cloudy
12:55 PM 6.8 °F -12.9 °F -4.0 °F 61% 30.47 in 10.0 mi West 19.6 mph - N/A   Mostly Cloudy
1:15 PM 6.8 °F -10.7 °F -2.2 °F 67% 30.48 in 10.0 mi West 15.0 mph - N/A   Mostly Cloudy
1:35 PM 5.0 °F -12.3 °F -4.0 °F 66% 30.48 in 10.0 mi WNW 13.8 mph - N/A   Scattered Clouds
1:55 PM 5.0 °F -14.2 °F -5.8 °F 61% 30.48 in 10.0 mi WNW 17.3 mph - N/A   Scattered Clouds
2:15 PM 6.8 °F -11.3 °F -5.8 °F 56% 30.48 in 10.0 mi WNW 16.1 mph - N/A   Partly Cloudy
2:35 PM 6.8 °F -11.3 °F -5.8 °F 56% 30.49 in 10.0 mi WNW 16.1 mph - N/A   Partly Cloudy
2:55 PM 6.8 °F -11.3 °F -4.0 °F 61% 30.49 in 10.0 mi NW 16.1 mph - N/A   Partly Cloudy
3:15 PM 6.8 °F -9.3 °F -5.8 °F 56% 30.50 in 10.0 mi WNW 12.7 mph - N/A   Partly Cloudy
3:35 PM 6.8 °F -11.3 °F -5.8 °F 56% 30.50 in 10.0 mi NW 16.1 mph - N/A   Clear
3:55 PM 6.8 °F -8.6 °F -5.8 °F 56% 30.50 in 10.0 mi WNW 11.5 mph - N/A   Partly Cloudy
4:15 PM 6.8 °F -11.3 °F -5.8 °F 56% 30.50 in 10.0 mi West 16.1 mph - N/A   Partly Cloudy
4:35 PM 6.8 °F -10.0 °F -5.8 °F 56% 30.50 in 10.0 mi West 13.8 mph - N/A   Partly Cloudy
4:55 PM 6.8 °F -6.9 °F -4.0 °F 61% 30.50 in 10.0 mi WNW 9.2 mph - N/A   Clear
5:15 PM 6.8 °F -5.9 °F -5.8 °F 56% 30.49 in 10.0 mi West 8.1 mph - N/A   Clear
5:35 PM 6.8 °F -5.9 °F -4.0 °F 61% 30.50 in 10.0 mi WNW 8.1 mph - N/A   Clear
5:55 PM 6.8 °F -4.8 °F -4.0 °F 61% 30.50 in 10.0 mi West 6.9 mph - N/A   Clear
6:15 PM 6.8 °F -5.9 °F -5.8 °F 56% 30.51 in 10.0 mi West 8.1 mph - N/A   Clear
6:35 PM 6.8 °F -5.9 °F -4.0 °F 61% 30.51 in 10.0 mi West 8.1 mph - N/A   Scattered Clouds
6:55 PM 6.8 °F -4.8 °F -4.0 °F 61% 30.52 in 10.0 mi West 6.9 mph - N/A   Scattered Clouds
7:15 PM 6.8 °F -6.9 °F -4.0 °F 61% 30.51 in 10.0 mi West 9.2 mph - N/A   Clear
7:35 PM 6.8 °F -5.9 °F -4.0 °F 61% 30.53 in 10.0 mi West 8.1 mph - N/A   Clear
7:55 PM 6.8 °F -4.8 °F -4.0 °F 61% 30.54 in 10.0 mi West 6.9 mph - N/A   Clear
8:15 PM 6.8 °F -6.9 °F -4.0 °F 61% 30.54 in 10.0 mi WNW 9.2 mph - N/A   Clear
8:35 PM 6.8 °F -7.8 °F -5.8 °F 56% 30.54 in 10.0 mi WNW 10.4 mph - N/A   Clear
8:55 PM 6.8 °F -8.6 °F -5.8 °F 56% 30.55 in 10.0 mi WNW 11.5 mph - N/A   Clear
9:15 PM 6.8 °F -7.8 °F -5.8 °F 56% 30.55 in 10.0 mi NW 10.4 mph - N/A   Clear
9:35 PM 6.8 °F -7.8 °F -5.8 °F 56% 30.55 in 10.0 mi WNW 10.4 mph - N/A   Clear
9:55 PM 6.8 °F -8.6 °F -7.6 °F 52% 30.56 in 10.0 mi NW 11.5 mph - N/A   Clear
10:15 PM 5.0 °F -11.6 °F -7.6 °F 56% 30.57 in 10.0 mi WNW 12.7 mph - N/A   Clear
10:35 PM 5.0 °F -10.8 °F -7.6 °F 56% 30.57 in 10.0 mi NW 11.5 mph - N/A   Clear
10:55 PM 5.0 °F -11.6 °F -7.6 °F 56% 30.57 in 10.0 mi WNW 12.7 mph - N/A   Clear
11:15 PM 5.0 °F -9.1 °F -7.6 °F 56% 30.57 in 10.0 mi WNW 9.2 mph - N/A   Clear
11:35 PM 5.0 °F -10.0 °F -7.6 °F 56% 30.57 in 10.0 mi WNW 10.4 mph - N/A   Clear
11:55 PM 5.0 °F -10.8 °F -7.6 °F 56% 30.57 in 10.0 mi West 11.5 mph - N/A   Clear